,,Stat5,,Stat1,,Stat2,,Stat3,,Stat4,,Wind1,,Wind1,
time,status,PA1M_AVG,status,PR1M_SUM,status,RH1M_AVG,status,SR1M_AVG,status,TA1M_AVG,status,W1dAve1m,status,W1sAve1m,
2000-05-23, 00:00:01,VALID,917.918,VALID,0,VALID,96.661,VALID,-0.0679233,VALID,21.2291,VALID,268,VALID,0,
2000-05-23, 00:01:00,VALID,917.938,VALID,0,VALID,96.7259,VALID,-0.0679233,VALID,21.2431,VALID,266,VALID,0,
2000-05-23, 00:02:00,VALID,917.941,VALID,0,VALID,96.6483,VALID,-0.0339617,VALID,21.2065,VALID,257,VALID,0,
2000-05-23, 00:03:00,VALID,917.938,VALID,0,VALID,96.5415,VALID,-0.0509425,VALID,21.1965,VALID,256,VALID,0,
2000-05-23, 00:04:00,VALID,917.938,VALID,0,VALID,96.277,VALID,-0.0509425,VALID,21.1448,VALID,245,VALID,0,
2000-05-23, 00:05:00,VALID,917.917,VALID,0,VALID,96.4919,VALID,-0.0509425,VALID,21.1386,VALID,228,VALID,0,
2000-05-23, 00:06:00,VALID,917.928,VALID,0,VALID,96.5987,VALID,-0.0679233,VALID,21.1225,VALID,212,VALID,0,
2000-05-23, 00:07:00,VALID,917.923,VALID,0,VALID,96.8098,VALID,-0.0849042,VALID,21.1289,VALID,241,VALID,0,
2000-05-23, 00:08:00,VALID,917.917,VALID,0,VALID,96.9688,VALID,0.0169808,VALID,21.144,VALID,229,VALID,0,
2000-05-23, 00:09:00,VALID,917.918,VALID,0,VALID,96.9904,VALID,0.0849042,VALID,21.1564,VALID,230,VALID,0,
2000-05-23, 00:10:00,VALID,917.932,VALID,0,VALID,96.97,VALID,0.0509425,VALID,21.1634,VALID,253,VALID,0,
2000-05-23, 00:11:00,VALID,917.924,VALID,0,VALID,96.9726,VALID,0.0509425,VALID,21.1723,VALID,251,VALID,0,
2000-05-23, 00:12:00,VALID,917.922,VALID,0,VALID,96.8251,VALID,0.0509425,VALID,21.1831,VALID,218,VALID,0,
2000-05-23, 00:13:00,VALID,917.916,VALID,0,VALID,96.8581,VALID,0.0509425,VALID,21.192,VALID,233,VALID,0,
2000-05-23, 00:14:00,VALID,917.91,VALID,0,VALID,96.9052,VALID,0.0679233,VALID,21.2175,VALID,224,VALID,0,
2000-05-23, 00:15:00,VALID,917.906,VALID,0,VALID,96.9255,VALID,0.0339617,VALID,21.2507,VALID,228,VALID,0,
2000-05-23, 00:16:00,VALID,917.907,VALID,0,VALID,96.8785,VALID,0.0509425,VALID,21.2598,VALID,243,VALID,0,
2000-05-23, 00:17:00,VALID,917.91,VALID,0,VALID,96.8212,VALID,0.0849042,VALID,21.276,VALID,251,VALID,0,
2000-05-23, 00:18:00,VALID,917.904,VALID,0,VALID,96.7615,VALID,0.0169808,VALID,21.2762,VALID,260,VALID,0.297492,
2000-05-23, 00:19:00,VALID,917.885,VALID,0,VALID,96.7564,VALID,0.0339617,VALID,21.2827,VALID,264,VALID,0.528505,
2000-05-23, 00:20:00,VALID,917.853,VALID,0,VALID,96.7297,VALID,0.0169808,VALID,21.2894,VALID,267,VALID,0.54523,
2000-05-23, 00:21:00,VALID,917.827,VALID,0,VALID,96.7055,VALID,0.0679233,VALID,21.3158,VALID,261,VALID,0.718961,
2000-05-23, 00:22:00,VALID,917.78,VALID,0,VALID,96.5199,VALID,0.0339617,VALID,21.3156,VALID,254,VALID,0.519196,
2000-05-23, 00:23:00,VALID,917.734,VALID,0,VALID,96.2567,VALID,0.0169808,VALID,21.28,VALID,217,VALID,0.20012,
2000-05-23, 00:24:00,VALID,917.718,VALID,0,VALID,96.1905,VALID,-0.0679233,VALID,21.277,VALID,210,VALID,0.0338542,
2000-05-23, 00:25:00,VALID,917.694,VALID,0,VALID,96.1435,VALID,-0.0509425,VALID,21.2875,VALID,209,VALID,0,
2000-05-23, 00:26:00,VALID,917.694,VALID,0,VALID,95.8828,VALID,-0.0849042,VALID,21.2746,VALID,209,VALID,0,
2000-05-23, 00:27:00,VALID,917.694,VALID,0,VALID,95.4937,VALID,-0.0679233,VALID,21.2485,VALID,159,VALID,0.267736,
2000-05-23, 00:28:00,VALID,917.698,VALID,0,VALID,95.0982,VALID,-0.0339617,VALID,21.2294,VALID,127,VALID,0.391859,
2000-05-23, 00:29:00,VALID,917.688,VALID,0,VALID,94.5667,VALID,-0.0339617,VALID,21.1677,VALID,114,VALID,0.457682,
2000-05-23, 00:30:00,VALID,917.685,VALID,0,VALID,94.9405,VALID,-0.0169808,VALID,21.0996,VALID,108,VALID,0.421464,
2000-05-23, 00:31:00,VALID,917.674,VALID,0,VALID,95.4848,VALID,-0.0339617,VALID,21.071,VALID,108,VALID,0.13049,
2000-05-23, 00:32:00,VALID,917.65,VALID,0,VALID,95.7544,VALID,-0.0679233,VALID,21.0551,VALID,116,VALID,0,
2000-05-23, 00:33:00,VALID,917.623,VALID,0,VALID,95.8879,VALID,-0.0679233,VALID,21.0457,VALID,118,VALID,0,
2000-05-23, 00:34:00,VALID,917.615,VALID,0,VALID,96.0875,VALID,-0.101885,VALID,21.0457,VALID,118,VALID,0,
2000-05-23, 00:35:00,VALID,917.61,VALID,0,VALID,96.0634,VALID,-0.101885,VALID,21.0134,VALID,140,VALID,0,
2000-05-23, 00:36:00,VALID,917.615,VALID,0,VALID,96.0557,VALID,-0.0679233,VALID,20.9905,VALID,140,VALID,0,
2000-05-23, 00:37:00,VALID,917.622,VALID,0,VALID,95.9438,VALID,-0.0339617,VALID,20.9388,VALID,140,VALID,0,
2000-05-23, 00:38:00,VALID,917.641,VALID,0,VALID,95.762,VALID,-0.0509425,VALID,20.9,VALID,140,VALID,0,
2000-05-23, 00:39:00,VALID,917.652,VALID,0,VALID,95.3004,VALID,-0.0849042,VALID,20.8481,VALID,140,VALID,0,
2000-05-23, 00:40:00,VALID,917.661,VALID,0,VALID,94.8439,VALID,0,VALID,20.7931,VALID,132,VALID,0,
2000-05-23, 00:41:00,VALID,917.653,VALID,0,VALID,94.5756,VALID,-0.0509425,VALID,20.7221,VALID,108,VALID,0,
2000-05-23, 00:42:00,VALID,917.646,VALID,0,VALID,94.7358,VALID,-0.0679233,VALID,20.6776,VALID,100,VALID,0.313345,
2000-05-23, 00:43:00,VALID,917.625,VALID,0,VALID,96.0596,VALID,-0.0849042,VALID,20.6582,VALID,101,VALID,0.832648,
2000-05-23, 00:44:00,VALID,917.59,VALID,0,VALID,96.6699,VALID,-0.101885,VALID,20.6356,VALID,105,VALID,0.697917,
2000-05-23, 00:45:00,VALID,917.567,VALID,0,VALID,97.0934,VALID,-0.0339617,VALID,20.6251,VALID,108,VALID,0.545847,
2000-05-23, 00:46:00,VALID,917.525,VALID,0,VALID,97.3744,VALID,-0.0509425,VALID,20.6321,VALID,121,VALID,0.13978,
2000-05-23, 00:47:00,VALID,917.502,VALID,0,VALID,97.6363,VALID,-0.0679233,VALID,20.6647,VALID,126,VALID,0,
2000-05-23, 00:48:00,VALID,917.473,VALID,0,VALID,97.8373,VALID,-0.101885,VALID,20.6903,VALID,134,VALID,0,
2000-05-23, 00:49:00,VALID,917.452,VALID,0,VALID,97.9784,VALID,-0.101885,VALID,20.7261,VALID,140,VALID,0,
2000-05-23, 00:50:00,VALID,917.417,VALID,0,VALID,97.9809,VALID,-0.0679233,VALID,20.7226,VALID,153,VALID,0,
2000-05-23, 00:51:00,VALID,917.374,VALID,0,VALID,97.8881,VALID,-0.101885,VALID,20.6838,VALID,175,VALID,0,
2000-05-23, 00:52:00,VALID,917.342,VALID,0,VALID,97.7813,VALID,-0.0679233,VALID,20.6189,VALID,200,VALID,0,
2000-05-23, 00:53:00,VALID,917.312,VALID,0,VALID,97.7978,VALID,-0.0509425,VALID,20.5871,VALID,221,VALID,0.0911458,
2000-05-23, 00:54:00,VALID,917.293,VALID,0,VALID,97.6719,VALID,-0.0339617,VALID,20.5387,VALID,221,VALID,0.331203,
2000-05-23, 00:55:00,VALID,917.28,VALID,0,VALID,97.6694,VALID,-0.0509425,VALID,20.48,VALID,208,VALID,0.707589,
2000-05-23, 00:56:00,VALID,917.264,VALID,0,VALID,97.7215,VALID,-0.101885,VALID,20.4547,VALID,202,VALID,0.705448,
2000-05-23, 00:57:00,VALID,917.243,VALID,0,VALID,97.7788,VALID,-0.0679233,VALID,20.4191,VALID,206,VALID,0.771748,
2000-05-23, 00:58:00,VALID,917.221,VALID,0,VALID,97.9263,VALID,-0.0679233,VALID,20.4062,VALID,199,VALID,0.884457,
2000-05-23, 00:59:00,VALID,917.21,VALID,0,VALID,98.0738,VALID,-0.0509425,VALID,20.3965,VALID,201,VALID,0.780382,
2000-05-23, 01:00:00,VALID,917.191,VALID,0,VALID,98.1297,VALID,-0.0849042,VALID,20.3801,VALID,192,VALID,0.637747,
2000-05-23, 01:01:00,VALID,917.198,VALID,0,VALID,98.3421,VALID,-0.0339617,VALID,20.3992,VALID,185,VALID,0.59734,
2000-05-23, 01:02:00,VALID,917.193,VALID,0,VALID,98.4756,VALID,-0.0679233,VALID,20.4455,VALID,185,VALID,0.495175,
2000-05-23, 01:03:00,VALID,917.206,VALID,0,VALID,98.4476,VALID,-0.0849042,VALID,20.4423,VALID,186,VALID,0.456414,
2000-05-23, 01:04:00,VALID,917.222,VALID,0,VALID,98.4171,VALID,-0.101885,VALID,20.4005,VALID,201,VALID,0.561655,
2000-05-23, 01:05:00,VALID,917.244,VALID,0,VALID,98.4832,VALID,-0.0679233,VALID,20.4032,VALID,209,VALID,0.741571,
2000-05-23, 01:06:00,VALID,917.247,VALID,0,VALID,98.5468,VALID,-0.101885,VALID,20.407,VALID,218,VALID,0.758235,
2000-05-23, 01:07:00,VALID,917.232,VALID,0,VALID,98.7172,VALID,-0.0679233,VALID,20.4383,VALID,210,VALID,0.791518,
2000-05-23, 01:08:00,VALID,917.24,VALID,0,VALID,98.8685,VALID,-0.0509425,VALID,20.5354,VALID,215,VALID,0.859375,
2000-05-23, 01:09:00,VALID,917.249,VALID,0,VALID,98.8418,VALID,-0.0509425,VALID,20.5511,VALID,214,VALID,0.956676,
2000-05-23, 01:10:00,VALID,917.245,VALID,0,VALID,98.8571,VALID,-0.0339617,VALID,20.5807,VALID,216,VALID,0.963616,
2000-05-23, 01:11:00,VALID,917.252,VALID,0,VALID,98.8647,VALID,-0.0849042,VALID,20.5966,VALID,214,VALID,0.813767,
2000-05-23, 01:12:00,VALID,917.255,VALID,0,VALID,98.8367,VALID,-0.0849042,VALID,20.5966,VALID,215,VALID,0.823057,
2000-05-23, 01:13:00,VALID,917.269,VALID,0,VALID,98.8291,VALID,-0.0849042,VALID,20.6068,VALID,210,VALID,0.641653,
2000-05-23, 01:14:00,VALID,917.268,VALID,0,VALID,98.777,VALID,-0.0849042,VALID,20.5742,VALID,191,VALID,0.780816,
2000-05-23, 01:15:00,VALID,917.267,VALID,0,VALID,98.8049,VALID,-0.0849042,VALID,20.5712,VALID,183,VALID,0.729852,
2000-05-23, 01:16:00,VALID,917.279,VALID,0,VALID,98.955,VALID,-0.0509425,VALID,20.6197,VALID,187,VALID,0.637247,
2000-05-23, 01:17:00,VALID,917.267,VALID,0,VALID,98.9563,VALID,-0.0849042,VALID,20.6326,VALID,168,VALID,0.668658,
2000-05-23, 01:18:00,VALID,917.265,VALID,0,VALID,98.9397,VALID,-0.0509425,VALID,20.6324,VALID,167,VALID,0.637747,
2000-05-23, 01:19:00,VALID,917.261,VALID,0,VALID,98.9067,VALID,-0.0339617,VALID,20.5936,VALID,159,VALID,0.682221,
2000-05-23, 01:20:00,VALID,917.256,VALID,0,VALID,98.9423,VALID,-0.101885,VALID,20.6003,VALID,164,VALID,0.71361,
2000-05-23, 01:21:00,VALID,917.252,VALID,0,VALID,98.9194,VALID,-0.101885,VALID,20.614,VALID,169,VALID,0.58087,
2000-05-23, 01:22:00,VALID,917.248,VALID,0,VALID,98.8609,VALID,-0.101885,VALID,20.5583,VALID,168,VALID,0.548884,
2000-05-23, 01:23:00,VALID,917.249,VALID,0,VALID,98.8901,VALID,-0.0339617,VALID,20.5384,VALID,168,VALID,0.421474,
2000-05-23, 01:24:00,VALID,917.24,VALID,0,VALID,98.9512,VALID,0,VALID,20.5444,VALID,168,VALID,0.560133,
2000-05-23, 01:25:00,VALID,917.231,VALID,0,VALID,98.997,VALID,0.0339617,VALID,20.5764,VALID,169,VALID,0.626116,
2000-05-23, 01:26:00,VALID,917.212,VALID,0,VALID,99.0211,VALID,0.0339617,VALID,20.5826,VALID,171,VALID,0.650338,
2000-05-23, 01:27:00,VALID,917.174,VALID,0,VALID,99.058,VALID,0.0169808,VALID,20.6182,VALID,172,VALID,0.686233,
2000-05-23, 01:28:00,VALID,917.155,VALID,0,VALID,99.0974,VALID,0,VALID,20.6706,VALID,181,VALID,0.632196,
2000-05-23, 01:29:00,VALID,917.136,VALID,0,VALID,99.0516,VALID,0.0679233,VALID,20.6567,VALID,184,VALID,0.569878,
2000-05-23, 01:30:00,VALID,917.117,VALID,0,VALID,99.016,VALID,0.0339617,VALID,20.6375,VALID,193,VALID,0.623972,
2000-05-23, 01:31:00,VALID,917.113,VALID,0,VALID,99.0504,VALID,0.0339617,VALID,20.6413,VALID,195,VALID,0.745144,
2000-05-23, 01:32:00,VALID,917.095,VALID,0,VALID,99.0822,VALID,0.0169808,VALID,20.6607,VALID,191,VALID,0.588235,
2000-05-23, 01:33:00,VALID,917.099,VALID,0,VALID,99.0936,VALID,0.0169808,VALID,20.6505,VALID,194,VALID,0.523649,
2000-05-23, 01:34:00,VALID,917.085,VALID,0,VALID,99.0936,VALID,0.0169808,VALID,20.6636,VALID,190,VALID,0.57897,
2000-05-23, 01:35:00,VALID,917.061,VALID,0,VALID,99.0237,VALID,0,VALID,20.6383,VALID,172,VALID,0.365748,
2000-05-23, 01:36:00,VALID,917.054,VALID,0,VALID,98.9385,VALID,0,VALID,20.5541,VALID,167,VALID,0.266258,
2000-05-23, 01:37:00,VALID,917.028,VALID,0,VALID,98.8978,VALID,0,VALID,20.5153,VALID,167,VALID,0.285491,
2000-05-23, 01:38:00,VALID,917,VALID,0,VALID,98.9537,VALID,0,VALID,20.4832,VALID,167,VALID,0.427684,
2000-05-23, 01:39:00,VALID,916.975,VALID,0,VALID,99.1152,VALID,-0.0169808,VALID,20.5575,VALID,167,VALID,0.539063,
2000-05-23, 01:40:00,VALID,916.94,VALID,0,VALID,99.1025,VALID,0,VALID,20.5896,VALID,167,VALID,0.681696,
2000-05-23, 01:41:00,VALID,916.924,VALID,0,VALID,99.1127,VALID,-0.0169808,VALID,20.609,VALID,168,VALID,0.623311,
2000-05-23, 01:42:00,VALID,916.918,VALID,0,VALID,99.1,VALID,0,VALID,20.6187,VALID,170,VALID,0.595439,
2000-05-23, 01:43:00,VALID,916.91,VALID,0,VALID,99.0745,VALID,0,VALID,20.602,VALID,170,VALID,0.358758,
2000-05-23, 01:44:00,VALID,916.907,VALID,0,VALID,99.0415,VALID,0,VALID,20.5767,VALID,183,VALID,0.346788,
2000-05-23, 01:45:00,VALID,916.906,VALID,0,VALID,98.9296,VALID,0,VALID,20.5091,VALID,187,VALID,0.288651,
2000-05-23, 01:46:00,VALID,916.877,VALID,0,VALID,98.8431,VALID,0,VALID,20.4248,VALID,189,VALID,0.185389,
2000-05-23, 01:47:00,VALID,916.863,VALID,0,VALID,98.8393,VALID,0,VALID,20.3376,VALID,189,VALID,0.171186,
2000-05-23, 01:48:00,VALID,916.831,VALID,0,VALID,98.7795,VALID,0,VALID,20.2902,VALID,189,VALID,0,
2000-05-23, 01:49:00,VALID,916.796,VALID,0,VALID,98.4553,VALID,0,VALID,20.0983,VALID,189,VALID,0,
2000-05-23, 01:50:00,VALID,916.752,VALID,0,VALID,98.2836,VALID,0,VALID,19.9567,VALID,189,VALID,0,
2000-05-23, 01:51:00,VALID,916.725,VALID,0,VALID,98.2683,VALID,0,VALID,19.8759,VALID,189,VALID,0,
2000-05-23, 01:52:00,VALID,916.709,VALID,0,VALID,98.1793,VALID,0,VALID,19.8016,VALID,189,VALID,0,
2000-05-23, 01:53:00,VALID,916.7,VALID,0,VALID,98.2442,VALID,0,VALID,19.783,VALID,189,VALID,0,
2000-05-23, 01:54:00,VALID,916.702,VALID,0,VALID,98.3332,VALID,0,VALID,19.7663,VALID,189,VALID,0,
2000-05-23, 01:55:00,VALID,916.697,VALID,0,VALID,98.4578,VALID,0,VALID,19.7989,VALID,189,VALID,0,
2000-05-23, 01:56:00,VALID,916.69,VALID,0,VALID,98.5951,VALID,-0.0169808,VALID,19.8406,VALID,189,VALID,0,
2000-05-23, 01:57:00,VALID,916.65,VALID,0,VALID,98.7299,VALID,0,VALID,19.9308,VALID,189,VALID,0,
2000-05-23, 01:58:00,VALID,916.624,VALID,0,VALID,98.7871,VALID,0.0169808,VALID,19.9696,VALID,189,VALID,0,
2000-05-23, 01:59:00,VALID,916.591,VALID,0,VALID,98.8901,VALID,0.0169808,VALID,20.0086,VALID,189,VALID,0,
2000-05-23, 02:00:00,VALID,916.553,VALID,0,VALID,98.9893,VALID,-0.0169808,VALID,20.0767,VALID,189,VALID,0,
2000-05-23, 02:01:00,VALID,916.531,VALID,0,VALID,98.9855,VALID,0,VALID,20.1311,VALID,189,VALID,0,
2000-05-23, 02:02:00,VALID,916.528,VALID,0,VALID,98.8838,VALID,0,VALID,20.1187,VALID,189,VALID,0,
2000-05-23, 02:03:00,VALID,916.537,VALID,0,VALID,98.8507,VALID,0,VALID,20.0797,VALID,189,VALID,0,
2000-05-23, 02:04:00,VALID,916.539,VALID,0,VALID,98.7884,VALID,0,VALID,20.028,VALID,189,VALID,0,
2000-05-23, 02:05:00,VALID,916.534,VALID,0,VALID,98.7846,VALID,-0.0339617,VALID,19.9962,VALID,189,VALID,0,
2000-05-23, 02:06:00,VALID,916.535,VALID,0,VALID,98.8113,VALID,0,VALID,19.9631,VALID,189,VALID,0,
2000-05-23, 02:07:00,VALID,916.512,VALID,0,VALID,98.8406,VALID,0,VALID,19.9601,VALID,189,VALID,0,
2000-05-23, 02:08:00,VALID,916.502,VALID,0,VALID,98.791,VALID,0,VALID,19.9343,VALID,189,VALID,0,
2000-05-23, 02:09:00,VALID,916.48,VALID,0,VALID,98.7604,VALID,0,VALID,19.8881,VALID,189,VALID,0,
2000-05-23, 02:10:00,VALID,916.477,VALID,0,VALID,98.7592,VALID,0.0169808,VALID,19.867,VALID,197,VALID,0,
2000-05-23, 02:11:00,VALID,916.497,VALID,0,VALID,98.8024,VALID,0,VALID,19.8533,VALID,233,VALID,0,
2000-05-23, 02:12:00,VALID,916.51,VALID,0,VALID,98.9003,VALID,-0.0169808,VALID,19.9122,VALID,292,VALID,0,
2000-05-23, 02:13:00,VALID,916.523,VALID,0,VALID,98.9728,VALID,0,VALID,19.9668,VALID,292,VALID,0,
2000-05-23, 02:14:00,VALID,916.532,VALID,0,VALID,99.0389,VALID,-0.0169808,VALID,20.0118,VALID,292,VALID,0,
2000-05-23, 02:15:00,VALID,916.539,VALID,0,VALID,99.0618,VALID,0,VALID,20.0541,VALID,295,VALID,0,
2000-05-23, 02:16:00,VALID,916.542,VALID,0,VALID,99.0694,VALID,0.0169808,VALID,20.0797,VALID,295,VALID,0,
2000-05-23, 02:17:00,VALID,916.538,VALID,0,VALID,99.0923,VALID,0.0169808,VALID,20.1157,VALID,295,VALID,0,
2000-05-23, 02:18:00,VALID,916.546,VALID,0,VALID,99.0669,VALID,0,VALID,20.0993,VALID,295,VALID,0,
2000-05-23, 02:19:00,VALID,916.543,VALID,0,VALID,99.0249,VALID,0,VALID,20.071,VALID,295,VALID,0,
2000-05-23, 02:20:00,VALID,916.554,VALID,0,VALID,98.941,VALID,-0.0169808,VALID,19.9892,VALID,295,VALID,0,
2000-05-23, 02:21:00,VALID,916.556,VALID,0,VALID,98.9258,VALID,0.0169808,VALID,19.9283,VALID,324,VALID,0,
2000-05-23, 02:22:00,VALID,916.546,VALID,0,VALID,99.0809,VALID,-0.0169808,VALID,20.0151,VALID,346,VALID,0,
2000-05-23, 02:23:00,VALID,916.536,VALID,0,VALID,99.161,VALID,-0.0169808,VALID,20.0966,VALID,343,VALID,0,
2000-05-23, 02:24:00,VALID,916.515,VALID,0,VALID,99.1826,VALID,-0.0169808,VALID,20.1256,VALID,319,VALID,0,
2000-05-23, 02:25:00,VALID,916.49,VALID,0,VALID,99.1623,VALID,0,VALID,20.116,VALID,305,VALID,0,
2000-05-23, 02:26:00,VALID,916.464,VALID,0,VALID,99.161,VALID,0,VALID,20.116,VALID,305,VALID,0,
2000-05-23, 02:27:00,VALID,916.437,VALID,0,VALID,99.1267,VALID,-0.0169808,VALID,20.106,VALID,305,VALID,0,
2000-05-23, 02:28:00,VALID,916.407,VALID,0,VALID,99.0987,VALID,0.0169808,VALID,20.0804,VALID,305,VALID,0,
2000-05-23, 02:29:00,VALID,916.408,VALID,0,VALID,99.0351,VALID,-0.0169808,VALID,20.0252,VALID,305,VALID,0,
2000-05-23, 02:30:00,VALID,916.394,VALID,0,VALID,99.0275,VALID,0,VALID,19.9765,VALID,305,VALID,0,
2000-05-23, 02:31:00,VALID,916.404,VALID,0,VALID,99.0313,VALID,-0.0169808,VALID,19.941,VALID,293,VALID,0,
2000-05-23, 02:32:00,VALID,916.412,VALID,0,VALID,98.9207,VALID,0,VALID,19.8928,VALID,256,VALID,0,
2000-05-23, 02:33:00,VALID,916.44,VALID,0,VALID,98.8596,VALID,-0.0169808,VALID,19.7897,VALID,252,VALID,0,
2000-05-23, 02:34:00,VALID,916.444,VALID,0,VALID,98.927,VALID,-0.0509425,VALID,19.7442,VALID,250,VALID,0,
2000-05-23, 02:35:00,VALID,916.471,VALID,0,VALID,98.9168,VALID,-0.0169808,VALID,19.7057,VALID,244,VALID,0,
2000-05-23, 02:36:00,VALID,916.476,VALID,0,VALID,98.8533,VALID,-0.0169808,VALID,19.648,VALID,230,VALID,0,
2000-05-23, 02:37:00,VALID,916.476,VALID,0,VALID,98.8762,VALID,-0.0339617,VALID,19.5832,VALID,229,VALID,0,
2000-05-23, 02:38:00,VALID,916.46,VALID,0,VALID,98.9067,VALID,0,VALID,19.5598,VALID,229,VALID,0,
2000-05-23, 02:39:00,VALID,916.445,VALID,0,VALID,98.9219,VALID,0,VALID,19.5285,VALID,229,VALID,0,
2000-05-23, 02:40:00,VALID,916.426,VALID,0,VALID,98.927,VALID,0,VALID,19.4952,VALID,229,VALID,0,
2000-05-23, 02:41:00,VALID,916.43,VALID,0,VALID,98.9156,VALID,-0.0169808,VALID,19.4567,VALID,229,VALID,0,
2000-05-23, 02:42:00,VALID,916.424,VALID,0,VALID,98.9957,VALID,-0.0169808,VALID,19.4408,VALID,223,VALID,0,
2000-05-23, 02:43:00,VALID,916.432,VALID,0,VALID,99.0427,VALID,-0.0169808,VALID,19.4306,VALID,218,VALID,0,
2000-05-23, 02:44:00,VALID,916.421,VALID,0,VALID,99.1267,VALID,-0.0339617,VALID,19.4602,VALID,220,VALID,0.220486,
2000-05-23, 02:45:00,VALID,916.426,VALID,0,VALID,99.2907,VALID,-0.0169808,VALID,19.5477,VALID,212,VALID,0.921669,
2000-05-23, 02:46:00,VALID,916.41,VALID,0,VALID,99.3377,VALID,0,VALID,19.6446,VALID,212,VALID,0.758868,
2000-05-23, 02:47:00,VALID,916.417,VALID,0,VALID,99.3594,VALID,-0.0169808,VALID,19.7054,VALID,207,VALID,0.683134,
2000-05-23, 02:48:00,VALID,916.413,VALID,0,VALID,99.3543,VALID,-0.0169808,VALID,19.7581,VALID,202,VALID,0.843133,
2000-05-23, 02:49:00,VALID,916.424,VALID,0,VALID,99.3988,VALID,-0.0339617,VALID,19.8093,VALID,189,VALID,1.019,
2000-05-23, 02:50:00,VALID,916.427,VALID,0,VALID,99.3187,VALID,-0.0169808,VALID,19.826,VALID,184,VALID,0.772615,
2000-05-23, 02:51:00,VALID,916.438,VALID,0,VALID,99.2971,VALID,-0.0169808,VALID,19.7862,VALID,169,VALID,0.841005,
2000-05-23, 02:52:00,VALID,916.428,VALID,0,VALID,99.292,VALID,-0.0509425,VALID,19.7708,VALID,174,VALID,1.02902,
2000-05-23, 02:53:00,VALID,916.436,VALID,0,VALID,99.3568,VALID,0.0169808,VALID,19.7954,VALID,178,VALID,0.88722,
2000-05-23, 02:54:00,VALID,916.42,VALID,0,VALID,99.3594,VALID,0.0679233,VALID,19.811,VALID,181,VALID,0.892045,
2000-05-23, 02:55:00,VALID,916.398,VALID,0,VALID,99.395,VALID,0.0679233,VALID,19.8533,VALID,187,VALID,0.853125,
2000-05-23, 02:56:00,VALID,916.394,VALID,0,VALID,99.3581,VALID,0.0679233,VALID,19.8466,VALID,183,VALID,0.815245,
2000-05-23, 02:57:00,VALID,916.376,VALID,0,VALID,99.3517,VALID,0.101885,VALID,19.857,VALID,188,VALID,0.973818,
2000-05-23, 02:58:00,VALID,916.359,VALID,0,VALID,99.3708,VALID,0.0849042,VALID,19.8632,VALID,186,VALID,0.831414,
2000-05-23, 02:59:00,VALID,916.346,VALID,0,VALID,99.3772,VALID,0.0509425,VALID,19.8625,VALID,191,VALID,0.924696,
2000-05-23, 03:00:00,VALID,916.35,VALID,0,VALID,99.4573,VALID,0.101885,VALID,19.9045,VALID,192,VALID,1.33265,
2000-05-23, 03:01:00,VALID,916.351,VALID,0,VALID,99.4128,VALID,0.101885,VALID,19.9206,VALID,186,VALID,0.718328,
2000-05-23, 03:02:00,VALID,916.347,VALID,0,VALID,99.4433,VALID,0.0849042,VALID,19.9368,VALID,191,VALID,0.866498,
2000-05-23, 03:03:00,VALID,916.37,VALID,0,VALID,99.4471,VALID,0.0849042,VALID,19.9532,VALID,194,VALID,1.13055,
2000-05-23, 03:04:00,VALID,916.39,VALID,0,VALID,99.4611,VALID,0.0509425,VALID,19.985,VALID,196,VALID,0.975084,
2000-05-23, 03:05:00,VALID,916.414,VALID,0,VALID,99.4585,VALID,0.0849042,VALID,19.9947,VALID,213,VALID,0.704153,
2000-05-23, 03:06:00,VALID,916.421,VALID,0,VALID,99.4713,VALID,0.0509425,VALID,20.0143,VALID,204,VALID,0.682644,
2000-05-23, 03:07:00,VALID,916.429,VALID,0,VALID,99.4611,VALID,0.101885,VALID,20.0304,VALID,215,VALID,0.828571,
2000-05-23, 03:08:00,VALID,916.432,VALID,0,VALID,99.4585,VALID,0.0679233,VALID,20.0339,VALID,198,VALID,0.700521,
2000-05-23, 03:09:00,VALID,916.422,VALID,0,VALID,99.4585,VALID,-0.0169808,VALID,20.0414,VALID,205,VALID,0.920691,
2000-05-23, 03:10:00,VALID,916.404,VALID,0,VALID,99.4662,VALID,-0.0169808,VALID,20.0481,VALID,192,VALID,1.04888,
2000-05-23, 03:11:00,VALID,916.406,VALID,0,VALID,99.47,VALID,0,VALID,20.0479,VALID,185,VALID,1.25486,
2000-05-23, 03:12:00,VALID,916.387,VALID,0,VALID,99.4535,VALID,0,VALID,20.0382,VALID,191,VALID,0.778716,
2000-05-23, 03:13:00,VALID,916.373,VALID,0,VALID,99.4814,VALID,0,VALID,20.0508,VALID,208,VALID,0.523232,
2000-05-23, 03:14:00,VALID,916.364,VALID,0,VALID,99.4992,VALID,0,VALID,20.0672,VALID,208,VALID,0.825955,
2000-05-23, 03:15:00,VALID,916.356,VALID,0,VALID,99.5425,VALID,0,VALID,20.113,VALID,210,VALID,1.16468,
2000-05-23, 03:16:00,VALID,916.349,VALID,0,VALID,99.5387,VALID,0,VALID,20.1383,VALID,208,VALID,1.49789,
2000-05-23, 03:17:00,VALID,916.344,VALID,0,VALID,99.5387,VALID,0,VALID,20.1381,VALID,207,VALID,1.03056,
2000-05-23, 03:18:00,VALID,916.342,VALID,0,VALID,99.5298,VALID,0,VALID,20.1545,VALID,219,VALID,1.13343,
2000-05-23, 03:19:00,VALID,916.367,VALID,0,VALID,99.5348,VALID,0,VALID,20.1577,VALID,218,VALID,1.3902,
2000-05-23, 03:20:00,VALID,916.368,VALID,0,VALID,99.5387,VALID,0,VALID,20.1609,VALID,195,VALID,1.50123,
2000-05-23, 03:21:00,VALID,916.398,VALID,0,VALID,99.531,VALID,0,VALID,20.154,VALID,194,VALID,1.10241,
2000-05-23, 03:22:00,VALID,916.407,VALID,0,VALID,99.5336,VALID,0,VALID,20.1674,VALID,223,VALID,1.13795,
2000-05-23, 03:23:00,VALID,916.427,VALID,0,VALID,99.5488,VALID,-0.0509425,VALID,20.1905,VALID,215,VALID,1.06951,
2000-05-23, 03:24:00,VALID,916.429,VALID,0,VALID,99.5437,VALID,-0.0849042,VALID,20.2,VALID,201,VALID,0.585464,
2000-05-23, 03:25:00,VALID,916.435,VALID,0,VALID,99.5425,VALID,-0.0849042,VALID,20.2,VALID,213,VALID,0.602679,
2000-05-23, 03:26:00,VALID,916.434,VALID,0,VALID,99.5412,VALID,-0.0679233,VALID,20.193,VALID,226,VALID,0.735431,
2000-05-23, 03:27:00,VALID,916.438,VALID,0,VALID,99.5323,VALID,-0.0679233,VALID,20.19,VALID,212,VALID,1.02998,
2000-05-23, 03:28:00,VALID,916.445,VALID,0,VALID,99.5425,VALID,-0.0339617,VALID,20.2032,VALID,197,VALID,0.804688,
2000-05-23, 03:29:00,VALID,916.459,VALID,0,VALID,99.5437,VALID,-0.0509425,VALID,20.1898,VALID,211,VALID,0.674045,
2000-05-23, 03:30:00,VALID,916.479,VALID,0,VALID,99.5463,VALID,-0.0849042,VALID,20.1965,VALID,218,VALID,0.855058,
2000-05-23, 03:31:00,VALID,916.491,VALID,0,VALID,99.5577,VALID,-0.0509425,VALID,20.2096,VALID,219,VALID,0.963682,
2000-05-23, 03:32:00,VALID,916.518,VALID,0,VALID,99.5552,VALID,-0.0509425,VALID,20.2121,VALID,212,VALID,0.708869,
2000-05-23, 03:33:00,VALID,916.548,VALID,0,VALID,99.5565,VALID,-0.0339617,VALID,20.2159,VALID,211,VALID,0.921053,
2000-05-23, 03:34:00,VALID,916.576,VALID,0,VALID,99.5603,VALID,-0.0849042,VALID,20.2124,VALID,200,VALID,0.390203,
2000-05-23, 03:35:00,VALID,916.599,VALID,0,VALID,99.5654,VALID,-0.0849042,VALID,20.2352,VALID,195,VALID,0.616571,
2000-05-23, 03:36:00,VALID,916.61,VALID,0,VALID,99.5552,VALID,-0.0339617,VALID,20.232,VALID,184,VALID,1.04793,
2000-05-23, 03:37:00,VALID,916.629,VALID,0,VALID,99.5476,VALID,-0.0679233,VALID,20.2253,VALID,198,VALID,0.371652,